Location: ?ang L�ng
(12.0093°N, 108.4251°E)
Time: 07:26:10
(UTC+00:00)

Daily predictions for brighter satellites

Satellite Brightness Start Highest point End
(mag) Time Altitude Azimuth Time Altitude Azimuth Time Altitude Azimuth
CZ-4 R/B 2.7 12:00:31 10° S 12:04:07 39° W 12:07:45 10° NNW
H-2A R/B 2.3 12:00:30 10° SSE 12:05:37 49° ENE 12:10:36 10° N
CSL-04 Debris 4.2 12:01:03 10° SSE 12:06:33 85° ENE 12:12:02 10° N
CZ-2C R/B 2.7 12:02:14 10° NNE 12:07:18 52° ESE 12:12:27 10° S
Yuri Rocket 2.8 12:05:45 10° WSW 12:10:16 89° S 12:13:23 17° ENE
HJ-1C 3.2 12:07:18 11° SSE 12:10:26 80° E 12:13:47 10° N
Cosmos 1656 Rocket 3.7 12:09:41 10° NNW 12:15:13 80° WSW 12:20:50 10° SSE
BLOCK DM-SL R/B 4.2 12:12:45 10° SW 12:16:11 25° SSE 12:19:31 21° SE
Cosmos 1959 Rocket 4.5 12:11:57 10° S 12:18:12 87° E 12:24:30 10° N
Abrixas rocket 2.5 12:15:28 10° NW 12:18:15 50° SW 12:19:02 36° S
BREEZE-M DEB (TANK) 3.9 12:15:01 10° NNW 12:18:43 57° NE 12:23:09 24° SE
Cosmos 1833 Rocket 2.7 12:14:23 10° S 12:19:49 54° ESE 12:25:16 10° NNE
Cosmos 1328 Rocket 3.4 12:22:43 10° N 12:27:07 71° E 12:29:24 28° SSE
Cosmos 1867 3.8 12:26:18 10° S 12:31:24 44° ESE 12:36:32 10° NE
DMSP B5D2-2 4.1 12:26:27 10° N 12:31:42 85° WNW 12:36:57 10° SSW
SL-08 RB Rocket 3.9 12:31:18 43° E 12:31:54 46° ENE 12:36:17 10° N
Cosmos 1933 3.7 12:36:58 10° NNW 12:41:00 63° W 12:42:55 29° SSW
Cosmos 1821 Rocket 4.1 12:42:32 44° ESE 12:43:21 47° E 12:49:10 10° NNE
Cosmos 1782 4.3 12:40:18 10° NNE 12:42:18 26° NNE 12:42:18 26° NNE
Cosmos 405 3.5 12:44:08 10° NNW 12:46:58 54° NW 12:46:58 54° NW
Cosmos 614 Rocket 4.4 12:47:54 10° SSW 12:52:54 60° WNW 12:57:57 10° N
IRS-1A Rocket 4.1 12:51:34 53° SSE 12:52:55 79° ENE 12:58:32 10° N
Meteor 1-26 Rocket 4.2 12:52:40 10° N 12:58:05 75° W 12:59:50 44° SSW
IRIDIUM 103 4.4 12:59:01 61° NE 12:59:01 61° NE 13:03:29 10° N
Cosmos 1515 Rocket 3.8 12:56:37 10° N 13:00:37 68° NW 13:00:37 68° NW
Cosmos 2082 Rocket 2.1 13:12:05 82° W 13:12:12 83° WNW 13:17:54 10° NNE
Cosmos 2239 Rocket 4.4 13:13:32 68° NNE 13:13:32 68° NNE 13:18:56 10° N
ATLAS 5 CENTAUR R/B 3.3 13:11:42 10° SW 13:36:16 - ENE 13:12:34 18° SW
ISS -0.8 13:12:51 10° NW 13:13:51 17° WNW 13:13:51 17° WNW
USA 238 DEB 3.5 13:11:24 10° SSW 13:17:57 85° WNW 13:24:34 10° NNE
USA 238 3.5 13:11:32 10° SSW 13:18:03 86° WNW 13:24:40 10° NNE
Ariane Rocket 4.2 13:27:00 35° WSW 13:27:24 36° WSW 13:32:01 10° NW
VEP-3 3.7 13:27:33 10° WNW 13:33:35 67° NNE 13:36:05 53° ENE
ATLAS 2A CENTAUR R/B 4.0 12:44:58 10° WSW 13:35:57 81° SSE 13:38:51 60° E
CZ-3A R/B 4.0 13:54:09 10° WNW 14:13:47 47° N 14:13:49 47° N
MAQSAT/ARIANE V 4.5 19:51:07 41° SE 19:51:07 41° SE 20:13:12 10° E
ARIANE 5 R/B 3.7 19:55:58 41° SE 19:55:58 41° SE 20:08:23 10° E
Intelsat 5-1 Rocket 4.2 19:55:58 63° SSE 19:56:33 64° SSE 20:18:12 10° ENE
Ariane H10+ 4.3 19:56:38 58° SSW 19:58:50 62° S 20:07:07 10° ESE
H-2A R/B 4.3 20:09:42 22° ENE 20:09:42 22° ENE 20:12:15 10° NNE
CZ-2C R/B 3.5 20:14:26 10° NNE 20:17:38 39° NE 20:17:38 39° NE
GPS 2-15 Rocket1 4.3 20:24:20 41° NE 20:24:20 41° NE 20:28:14 10° E
Hubble Space Telescope 3.0 20:26:52 21° NNE 20:26:52 21° NNE 20:28:40 10° NE
Cosmos 1844 4.0 20:25:42 59° SE 20:26:07 61° ESE 20:31:49 10° NNE
ERS-2 4.4 20:27:20 24° NE 20:27:20 24° NE 20:29:36 10° NNE
Meteor 2-21 Rocket 4.2 20:31:34 10° N 20:37:38 78° W 20:38:00 75° SW
S3M 3.9 20:38:18 71° SW 20:38:47 75° W 20:45:09 10° N
Meteor 2-16 Rocket 4.3 20:33:35 10° N 20:39:44 87° E 20:42:58 30° S
Cosmos 1244 Rocket 4.3 20:37:44 10° N 20:44:01 73° W 20:45:33 52° SSW
Atlas Centaur 2 4.2 20:52:06 20° NW 20:55:30 28° NNW 21:02:18 10° NE
SL-08 R/B 4.4 20:53:26 10° N 20:59:41 79° W 21:05:59 10° S
CZ-4B R/B 4.2 21:04:02 10° NNE 21:07:37 57° E 21:09:39 24° S
Cosmos 1844 Rocket 3.3 21:08:24 34° WNW 21:08:34 34° WNW 21:13:35 10° N
SL-4 R/B 4.1 21:09:06 10° N 21:11:54 23° NE 21:14:47 10° ESE
Meteosat 1 Rocket2 4.3 21:11:11 27° WNW 21:12:54 34° NNW 21:16:49 10° NE
Cosmos 2315 Rocket 3.9 21:08:39 10° S 21:14:54 79° W 21:21:12 10° N
Cosmos 1603 3.7 21:18:47 10° NNW 21:24:19 57° WSW 21:29:50 10° S
Cosmos 1455 3.8 21:21:11 10° SSE 21:24:41 35° E 21:28:12 10° NNE
Cosmos 1300 4.4 21:26:03 19° NW 21:26:03 19° NW 21:27:46 10° NNW
METEOR-M 4.2 21:19:39 10° NNE 21:24:59 82° ESE 21:30:20 10° S
SWIFT 3.7 21:24:16 21° SSW 21:25:57 27° SSE 21:29:32 10° E
Cosmos 1812 Rocket 4.5 21:21:49 10° SSE 21:25:59 49° E 21:30:10 10° NNE
Cosmos 1048 Rocket 4.1 21:21:13 10° N 21:26:23 78° ENE 21:31:38 10° SSE
CZ-3B R/B 2.4 21:27:11 20° NNW 21:27:11 20° NNW 21:28:09 10° N
Cosmos 2058 Rocket 4.0 21:28:09 27° W 21:28:28 27° W 21:32:17 10° NNW
ARIANE 44LP R/B 2.5 21:35:02 24° S 21:35:11 25° S 21:37:02 10° ESE
Maqsat-H 4.4 21:33:53 12° SW 21:35:42 13° SSW 21:38:05 10° S
GPS 2-12 Rocket1 3.3 21:33:17 24° WSW 21:36:05 68° SSE 21:40:52 10° ENE
CZ-4B R/B 3.0 21:32:19 10° N 21:36:46 89° W 21:41:03 10° SSW
DELTA 2 R/B (1) 3.8 21:35:28 16° SW 21:39:54 67° SE 21:45:27 10° ENE
H-2A R/B 3.4 21:40:15 10° NNE 21:43:53 45° E 21:47:35 10° S
H-2A R/B 4.1 21:46:47 10° WNW 21:46:47 10° WNW 21:46:53 10° WNW
ADEOS Rocket 3.7 21:39:27 10° SSE 21:46:32 78° ENE 21:54:10 10° N
TSX-5 3.4 21:43:06 10° SSW 21:47:00 75° WNW 21:50:16 10° NNE
CZ-4B R/B 1.7 21:46:09 10° S 21:49:23 42° W 21:52:33 10° NNW
Cosmos 1943 3.6 21:44:23 10° NW 21:49:31 38° WSW 21:54:41 10° S
CZ-3B R/B 3.5 21:36:00 10° WNW 21:50:19 49° SW 21:54:58 10° SE
ATLAS 3B CENTAUR R/B 3.5 21:48:48 10° NW 21:54:30 27° N 21:57:39 10° ENE
NOSS 3-4 (A) 3.8 21:49:58 10° SSW 21:55:53 63° ESE 22:01:41 10° NNE
SL-23 DEB 3.9 21:52:59 10° WNW 21:56:00 34° SW 21:59:01 10° SSE
NOSS 3-4 (C) 3.8 21:50:07 10° SSW 21:56:01 62° ESE 22:01:49 10° NNE
Meteor 1-31 Rocket 4.0 21:53:55 10° NNW 21:56:53 22° WNW 21:59:47 10° SW
Cosmos 2058 4.5 21:53:54 10° NNE 21:57:50 40° E 22:01:48 10° SSE
ALOS 3.1 21:53:49 10° NNW 21:57:51 29° WNW 22:01:53 10° SW
Cosmos 1484 Rocket 4.3 21:58:24 10° NW 22:00:53 17° WNW 22:03:21 10° WSW
ARIANE 44L R/B 4.2 21:59:45 10° SW 22:02:25 22° SSE 22:09:14 10° ESE
Cosmos 1400 Rocket 2.8 22:01:16 10° SSW 22:05:12 58° W 22:09:04 10° N
Hubble Space Telescope 3.3 22:05:23 10° NNW 22:06:41 11° NNW 22:07:59 10° N
GPS 2-15 Rocket1 3.2 22:02:57 10° WNW 22:07:53 80° SSW 22:12:50 10° ESE
Cosmos 1689 Rocket 2.0 22:06:50 10° S 22:09:42 55° W 22:12:33 10° NNW
Meteor 2-10 Rocket 3.8 22:06:08 10° SSW 22:10:51 42° W 22:15:41 10° NNW
ATLAS 2A CENTAUR R/B 2.7 22:08:26 10° WNW 22:11:55 71° NNE 22:25:09 10° ESE
PSLV R/B 3.8 22:11:57 10° N 22:15:42 60° WNW 22:19:22 10° SSW
Lacrosse 5 rocket 1.9 22:11:33 10° SW 22:15:48 49° WNW 22:20:13 10° NNE
Cosmos 1076 Rocket 4.2 22:11:58 10° N 22:16:16 61° E 22:20:33 10° SSE
ATLAS 2AS CENTAUR R/B 3.1 22:11:53 10° SSW 22:19:29 87° WNW 22:27:30 10° NNE
